GLO2035 SBEG-SBGL

Flight info

Callsign GLO2035
Flight time 3h 36m
Altitude 37000
Route GIKVI UZ6 MULUV UZ24 MAVGU
Aircraft B738/M-SDFGIKLORWXY/LB1

Departure

Time 2026-04-28 08:51
Airport Eduardo Gomes International Airport (SBEG)

Arrival

Time 2026-04-28 12:27
Airport Rio Galeão – Tom Jobim International Airport (SBGL)
Time Latitude Longitude Altitude Speed Heading
2026-04-28 08:37 -3.03272 -60.04581 269 ft 0 kts 357°
2026-04-28 08:44 -3.03274 -60.04581 269 ft 3 kts 356°
2026-04-28 08:44 -3.03301 -60.04578 269 ft 4 kts 350°
2026-04-28 08:44 -3.03327 -60.04572 269 ft 4 kts 337°
2026-04-28 08:45 -3.03348 -60.04558 269 ft 4 kts 302°
2026-04-28 08:45 -3.03353 -60.04543 269 ft 1 kts 265°
2026-04-28 08:45 -3.03352 -60.04540 269 ft 0 kts 265°
2026-04-28 08:47 -3.03352 -60.04541 269 ft 0 kts 265°
2026-04-28 08:47 -3.03354 -60.04562 269 ft 6 kts 265°
2026-04-28 08:47 -3.03355 -60.04621 269 ft 11 kts 271°
2026-04-28 08:47 -3.03356 -60.04715 269 ft 16 kts 261°
2026-04-28 08:48 -3.03410 -60.04826 269 ft 20 kts 228°
2026-04-28 08:48 -3.03527 -60.04924 269 ft 24 kts 225°
2026-04-28 08:48 -3.03600 -60.05074 269 ft 24 kts 256°
2026-04-28 08:48 -3.03641 -60.05231 269 ft 23 kts 255°
2026-04-28 08:49 -3.03677 -60.05383 269 ft 22 kts 260°
2026-04-28 08:49 -3.03691 -60.05534 269 ft 22 kts 269°
2026-04-28 08:49 -3.03691 -60.05682 269 ft 21 kts 270°
2026-04-28 08:49 -3.03691 -60.05825 269 ft 20 kts 270°
2026-04-28 08:50 -3.03691 -60.05964 269 ft 20 kts 270°
2026-04-28 08:50 -3.03692 -60.06098 269 ft 19 kts 261°
2026-04-28 08:50 -3.03772 -60.06174 269 ft 16 kts 186°
2026-04-28 08:50 -3.03856 -60.06123 270 ft 15 kts 103°
2026-04-28 08:51 -3.03858 -60.05953 270 ft 52 kts 90°
2026-04-28 08:51 -3.03859 -60.05341 268 ft 121 kts 90°
2026-04-28 08:51 -3.03861 -60.04297 292 ft 176 kts 89°
2026-04-28 08:51 -3.03876 -60.03047 1043 ft 175 kts 91°
2026-04-28 08:52 -3.03897 -60.01887 2065 ft 165 kts 91°
2026-04-28 08:52 -3.04204 -60.00745 2541 ft 189 kts 127°
2026-04-28 08:52 -3.05325 -59.99874 2826 ft 219 kts 145°
2026-04-28 08:52 -3.06680 -59.99001 3032 ft 245 kts 145°
2026-04-28 08:53 -3.08178 -59.98030 3381 ft 265 kts 145°
2026-04-28 08:53 -3.09738 -59.97011 4145 ft 270 kts 144°
2026-04-28 08:53 -3.11315 -59.95973 5006 ft 272 kts 144°
2026-04-28 08:53 -3.12907 -59.94917 5800 ft 276 kts 144°
2026-04-28 08:54 -3.14509 -59.93847 6605 ft 279 kts 144°
2026-04-28 08:54 -3.16111 -59.92773 7365 ft 282 kts 144°
2026-04-28 08:54 -3.17753 -59.91669 8138 ft 285 kts 144°
2026-04-28 08:54 -3.19409 -59.90553 8911 ft 288 kts 144°
2026-04-28 08:55 -3.21080 -59.89425 9685 ft 291 kts 144°
2026-04-28 08:55 -3.22774 -59.88281 10296 ft 300 kts 144°
2026-04-28 08:55 -3.24573 -59.87063 10483 ft 323 kts 144°
2026-04-28 08:55 -3.26495 -59.85762 10726 ft 342 kts 144°
2026-04-28 08:56 -3.28489 -59.84414 11258 ft 349 kts 144°
2026-04-28 08:56 -3.30509 -59.83049 11921 ft 352 kts 144°
2026-04-28 08:56 -3.32546 -59.81672 12595 ft 354 kts 144°
2026-04-28 08:56 -3.34597 -59.80286 13256 ft 358 kts 144°
2026-04-28 08:57 -3.36663 -59.78889 13873 ft 361 kts 144°
2026-04-28 08:57 -3.38729 -59.77491 14425 ft 364 kts 144°
2026-04-28 08:57 -3.40836 -59.76065 14996 ft 367 kts 144°
2026-04-28 08:57 -3.42959 -59.74629 15556 ft 370 kts 145°
2026-04-28 08:58 -3.45105 -59.73176 16113 ft 373 kts 145°
2026-04-28 08:58 -3.47264 -59.71714 16662 ft 376 kts 145°
2026-04-28 08:58 -3.49437 -59.70244 17206 ft 380 kts 145°
2026-04-28 08:58 -3.51638 -59.68754 17750 ft 383 kts 145°
2026-04-28 08:59 -3.53840 -59.67229 18261 ft 386 kts 142°
2026-04-28 08:59 -3.55922 -59.65514 18717 ft 388 kts 137°
2026-04-28 08:59 -3.57930 -59.63691 19194 ft 390 kts 136°
2026-04-28 08:59 -3.59916 -59.61833 19657 ft 392 kts 136°
2026-04-28 09:00 -3.61915 -59.59962 20112 ft 395 kts 136°
2026-04-28 09:00 -3.63911 -59.58108 20550 ft 397 kts 136°
2026-04-28 09:00 -3.65952 -59.56231 20996 ft 400 kts 136°
2026-04-28 09:00 -3.68017 -59.54347 21431 ft 402 kts 136°
2026-04-28 09:01 -3.70101 -59.52455 21857 ft 405 kts 136°
2026-04-28 09:01 -3.72195 -59.50559 22279 ft 407 kts 136°
2026-04-28 09:01 -3.74303 -59.48652 22690 ft 410 kts 136°
2026-04-28 09:01 -3.76430 -59.46731 23098 ft 412 kts 136°
2026-04-28 09:02 -3.78569 -59.44799 23494 ft 415 kts 136°
2026-04-28 09:02 -3.80720 -59.42855 23817 ft 417 kts 136°
2026-04-28 09:02 -3.82879 -59.40905 24140 ft 419 kts 136°
2026-04-28 09:02 -3.85023 -59.38967 24459 ft 421 kts 136°
2026-04-28 09:03 -3.87205 -59.36995 24781 ft 423 kts 136°
2026-04-28 09:03 -3.89393 -59.35018 25091 ft 425 kts 136°
2026-04-28 09:03 -3.91592 -59.33029 25390 ft 427 kts 136°
2026-04-28 09:03 -3.93803 -59.31030 25697 ft 429 kts 136°
2026-04-28 09:04 -3.96024 -59.29022 25993 ft 431 kts 136°
2026-04-28 09:04 -3.98261 -59.27000 26286 ft 433 kts 136°
2026-04-28 09:04 -4.00503 -59.24972 26572 ft 435 kts 136°
2026-04-28 09:04 -4.02755 -59.22935 26861 ft 437 kts 136°
2026-04-28 09:05 -4.05018 -59.20888 27139 ft 439 kts 136°
2026-04-28 09:05 -4.07296 -59.18828 27426 ft 441 kts 136°
2026-04-28 09:05 -4.09579 -59.16762 27695 ft 443 kts 136°
2026-04-28 09:05 -4.11877 -59.14683 27950 ft 445 kts 136°
2026-04-28 09:06 -4.14175 -59.12605 28211 ft 447 kts 136°
2026-04-28 09:06 -4.16493 -59.10508 28479 ft 449 kts 136°
2026-04-28 09:06 -4.18814 -59.08407 28721 ft 451 kts 136°
2026-04-28 09:06 -4.21145 -59.06298 28962 ft 452 kts 136°
2026-04-28 09:07 -4.23484 -59.04181 29215 ft 454 kts 136°
2026-04-28 09:07 -4.25801 -59.02083 29446 ft 456 kts 136°
2026-04-28 09:07 -4.28163 -58.99945 29680 ft 458 kts 136°
2026-04-28 09:07 -4.30534 -58.97799 29902 ft 459 kts 136°
2026-04-28 09:08 -4.32910 -58.95648 30101 ft 461 kts 136°
2026-04-28 09:08 -4.35299 -58.93485 30291 ft 463 kts 136°
2026-04-28 09:08 -4.37689 -58.91321 30480 ft 464 kts 136°
2026-04-28 09:08 -4.40089 -58.89147 30709 ft 464 kts 137°
2026-04-28 09:09 -4.42485 -58.86977 30991 ft 463 kts 137°
2026-04-28 09:09 -4.44871 -58.84816 31279 ft 462 kts 137°
2026-04-28 09:09 -4.47221 -58.82686 31535 ft 462 kts 137°
2026-04-28 09:09 -4.49609 -58.80522 31777 ft 462 kts 137°
2026-04-28 09:10 -4.51991 -58.78364 32045 ft 462 kts 137°
2026-04-28 09:10 -4.54370 -58.76208 32317 ft 461 kts 137°
2026-04-28 09:10 -4.56748 -58.74053 32584 ft 461 kts 137°
2026-04-28 09:10 -4.59129 -58.71892 32846 ft 461 kts 137°
2026-04-28 09:11 -4.61503 -58.69735 33108 ft 460 kts 137°
2026-04-28 09:11 -4.63879 -58.67575 33376 ft 460 kts 137°
2026-04-28 09:11 -4.66249 -58.65420 33643 ft 460 kts 137°
2026-04-28 09:11 -4.68618 -58.63267 33917 ft 460 kts 137°
2026-04-28 09:12 -4.70983 -58.61116 34162 ft 459 kts 137°
2026-04-28 09:12 -4.73318 -58.58993 34412 ft 458 kts 137°
2026-04-28 09:12 -4.75674 -58.56850 34679 ft 456 kts 137°
2026-04-28 09:12 -4.78020 -58.54716 34949 ft 455 kts 137°
2026-04-28 09:13 -4.80361 -58.52587 35180 ft 454 kts 137°
2026-04-28 09:13 -4.82703 -58.50457 35421 ft 453 kts 137°
2026-04-28 09:13 -4.85035 -58.48335 35652 ft 453 kts 137°
2026-04-28 09:13 -4.87364 -58.46216 35880 ft 452 kts 137°
2026-04-28 09:14 -4.89694 -58.44097 36109 ft 451 kts 137°
2026-04-28 09:14 -4.92014 -58.41985 36328 ft 450 kts 137°
2026-04-28 09:14 -4.94330 -58.39877 36545 ft 449 kts 137°
2026-04-28 09:14 -4.96643 -58.37772 36752 ft 449 kts 138°
2026-04-28 09:15 -4.98959 -58.35663 36926 ft 449 kts 138°
2026-04-28 09:15 -5.03606 -58.31433 36943 ft 451 kts 138°
2026-04-28 09:16 -5.08237 -58.27216 36943 ft 448 kts 137°
2026-04-28 09:16 -5.12809 -58.23051 36946 ft 445 kts 137°
2026-04-28 09:17 -5.17385 -58.18881 36952 ft 443 kts 137°
2026-04-28 09:17 -5.21943 -58.14728 36954 ft 442 kts 137°
2026-04-28 09:18 -5.26517 -58.10592 36962 ft 443 kts 138°
2026-04-28 09:18 -5.31131 -58.06448 36956 ft 445 kts 138°
2026-04-28 09:19 -5.35757 -58.02290 36962 ft 448 kts 138°
2026-04-28 09:19 -5.40411 -57.98100 36964 ft 450 kts 138°
2026-04-28 09:20 -5.45058 -57.93913 36961 ft 453 kts 138°
2026-04-28 09:20 -5.49758 -57.89678 36954 ft 454 kts 138°
2026-04-28 09:21 -5.54472 -57.85429 36959 ft 456 kts 138°
2026-04-28 09:21 -5.59187 -57.81178 36957 ft 456 kts 138°
2026-04-28 09:22 -5.63899 -57.76930 36957 ft 455 kts 137°
2026-04-28 09:22 -5.68611 -57.72680 36956 ft 454 kts 137°
2026-04-28 09:23 -5.73268 -57.68478 36958 ft 453 kts 137°
2026-04-28 09:23 -5.77948 -57.64255 36953 ft 451 kts 137°
2026-04-28 09:24 -5.82611 -57.60046 36957 ft 450 kts 137°
2026-04-28 09:24 -5.87265 -57.55845 36958 ft 449 kts 137°
2026-04-28 09:25 -5.91909 -57.51651 36962 ft 448 kts 137°
2026-04-28 09:25 -5.96542 -57.47467 36958 ft 448 kts 137°
2026-04-28 09:26 -6.01172 -57.43284 36959 ft 448 kts 137°
2026-04-28 09:26 -6.05809 -57.39094 36961 ft 448 kts 137°
2026-04-28 09:27 -6.12766 -57.32805 36967 ft 449 kts 137°
2026-04-28 09:27 -6.17386 -57.28628 36969 ft 450 kts 137°
2026-04-28 09:28 -6.22043 -57.24416 36967 ft 450 kts 137°
2026-04-28 09:28 -6.26701 -57.20203 36969 ft 451 kts 137°
2026-04-28 09:29 -6.31369 -57.15979 36970 ft 451 kts 137°
2026-04-28 09:29 -6.36040 -57.11751 36970 ft 452 kts 137°
2026-04-28 09:30 -6.40706 -57.07527 36976 ft 452 kts 137°
2026-04-28 09:30 -6.45377 -57.03297 36974 ft 451 kts 137°
2026-04-28 09:31 -6.50014 -56.99097 36967 ft 451 kts 137°
2026-04-28 09:31 -6.54678 -56.94872 36977 ft 451 kts 137°
2026-04-28 09:32 -6.59330 -56.90655 36971 ft 450 kts 137°
2026-04-28 09:32 -6.63987 -56.86434 36976 ft 449 kts 137°
2026-04-28 09:33 -6.68626 -56.82227 36977 ft 449 kts 137°
2026-04-28 09:33 -6.73254 -56.78030 36976 ft 448 kts 137°
2026-04-28 09:34 -6.77876 -56.73837 36972 ft 447 kts 137°
2026-04-28 09:34 -6.82486 -56.69653 36980 ft 446 kts 137°
2026-04-28 09:35 -6.87090 -56.65474 36978 ft 445 kts 137°
2026-04-28 09:35 -6.91692 -56.61295 36982 ft 445 kts 137°
2026-04-28 09:36 -6.95514 -56.57824 36979 ft 445 kts 137°
2026-04-28 09:36 -7.00110 -56.53649 36988 ft 445 kts 137°
2026-04-28 09:37 -7.04705 -56.49474 36984 ft 445 kts 137°
2026-04-28 09:37 -7.09295 -56.45301 36983 ft 445 kts 137°
2026-04-28 09:38 -7.13890 -56.41123 36987 ft 445 kts 137°
2026-04-28 09:38 -7.18482 -56.36946 36982 ft 445 kts 137°
2026-04-28 09:39 -7.23050 -56.32789 36992 ft 445 kts 137°
2026-04-28 09:39 -7.27676 -56.28580 36987 ft 445 kts 137°
2026-04-28 09:40 -7.32244 -56.24421 36993 ft 445 kts 137°
2026-04-28 09:40 -7.36840 -56.20235 36987 ft 446 kts 137°
2026-04-28 09:41 -7.41435 -56.16046 36990 ft 446 kts 137°
2026-04-28 09:41 -7.46036 -56.11851 36992 ft 446 kts 137°
2026-04-28 09:42 -7.50631 -56.07660 36995 ft 446 kts 137°
2026-04-28 09:42 -7.55226 -56.03468 36991 ft 446 kts 137°
2026-04-28 09:43 -7.59825 -55.99271 36998 ft 446 kts 137°
2026-04-28 09:43 -7.64419 -55.95077 36997 ft 446 kts 137°
2026-04-28 09:44 -7.69011 -55.90883 36997 ft 445 kts 137°
2026-04-28 09:44 -7.73601 -55.86690 36997 ft 445 kts 137°
2026-04-28 09:45 -7.78195 -55.82493 37001 ft 445 kts 137°
2026-04-28 09:45 -7.82783 -55.78299 37001 ft 445 kts 137°
2026-04-28 09:46 -7.87374 -55.74101 36998 ft 445 kts 137°
2026-04-28 09:46 -7.91933 -55.69931 37000 ft 445 kts 137°
2026-04-28 09:47 -7.96518 -55.65737 37001 ft 445 kts 137°
2026-04-28 09:47 -8.01108 -55.61536 37003 ft 445 kts 137°
2026-04-28 09:48 -8.05697 -55.57334 37004 ft 445 kts 137°
2026-04-28 09:48 -8.10287 -55.53132 37008 ft 445 kts 137°
2026-04-28 09:49 -8.14872 -55.48931 37003 ft 445 kts 137°
2026-04-28 09:49 -8.19462 -55.44725 37007 ft 445 kts 137°
2026-04-28 09:50 -8.24048 -55.40521 37004 ft 445 kts 137°
2026-04-28 09:50 -8.28640 -55.36311 37008 ft 446 kts 137°
2026-04-28 09:51 -8.33232 -55.32098 37010 ft 446 kts 137°
2026-04-28 09:51 -8.37795 -55.27912 37011 ft 446 kts 137°
2026-04-28 09:52 -8.42384 -55.23699 37013 ft 446 kts 137°
2026-04-28 09:52 -8.46979 -55.19480 37013 ft 446 kts 137°
2026-04-28 09:53 -8.51582 -55.15252 37014 ft 446 kts 137°
2026-04-28 09:53 -8.56178 -55.11030 37014 ft 446 kts 137°
2026-04-28 09:54 -8.60737 -55.06839 37017 ft 446 kts 137°
2026-04-28 09:54 -8.65330 -55.02617 37016 ft 446 kts 137°
2026-04-28 09:55 -8.69918 -54.98396 37023 ft 446 kts 137°
2026-04-28 09:55 -8.74500 -54.94181 37019 ft 446 kts 137°
2026-04-28 09:56 -8.79085 -54.89961 37018 ft 445 kts 137°
2026-04-28 09:56 -8.83662 -54.85747 37021 ft 445 kts 137°
2026-04-28 09:57 -8.88235 -54.81534 37027 ft 445 kts 137°
2026-04-28 09:57 -8.92813 -54.77316 37029 ft 445 kts 137°
2026-04-28 09:58 -8.97386 -54.73100 37032 ft 444 kts 137°
2026-04-28 09:58 -9.01925 -54.68915 37028 ft 444 kts 137°
2026-04-28 09:59 -9.06522 -54.64675 37033 ft 444 kts 137°
2026-04-28 09:59 -9.11069 -54.60478 37031 ft 445 kts 137°
2026-04-28 10:00 -9.15638 -54.56260 37031 ft 445 kts 137°
2026-04-28 10:00 -9.20151 -54.51966 37027 ft 445 kts 135°
2026-04-28 10:01 -9.24535 -54.47541 37024 ft 445 kts 134°
2026-04-28 10:01 -9.28922 -54.43100 37025 ft 446 kts 135°
2026-04-28 10:02 -9.33327 -54.38671 37031 ft 446 kts 135°
2026-04-28 10:02 -9.37733 -54.34257 37024 ft 446 kts 135°
2026-04-28 10:03 -9.42151 -54.29833 37029 ft 445 kts 135°
2026-04-28 10:03 -9.46553 -54.25422 37027 ft 445 kts 135°
2026-04-28 10:04 -9.50953 -54.21010 37026 ft 444 kts 135°
2026-04-28 10:04 -9.55349 -54.16602 37027 ft 444 kts 135°
2026-04-28 10:05 -9.59737 -54.12199 37026 ft 444 kts 135°
2026-04-28 10:05 -9.64095 -54.07825 37025 ft 444 kts 135°
2026-04-28 10:06 -9.68488 -54.03413 37031 ft 444 kts 135°
2026-04-28 10:06 -9.72881 -53.99000 37025 ft 445 kts 135°
2026-04-28 10:07 -9.77283 -53.94576 37034 ft 446 kts 135°
2026-04-28 10:07 -9.81693 -53.90142 37028 ft 446 kts 135°
2026-04-28 10:08 -9.86103 -53.85706 37030 ft 447 kts 135°
2026-04-28 10:08 -9.90597 -53.81324 37026 ft 448 kts 137°
2026-04-28 10:09 -9.95161 -53.77088 37023 ft 448 kts 137°
2026-04-28 10:09 -9.99763 -53.72812 37030 ft 448 kts 137°
2026-04-28 10:10 -10.04349 -53.68516 37033 ft 449 kts 137°
2026-04-28 10:10 -10.08928 -53.64212 37036 ft 449 kts 137°
2026-04-28 10:11 -10.13512 -53.59901 37027 ft 449 kts 137°
2026-04-28 10:11 -10.18098 -53.55588 37025 ft 449 kts 137°
2026-04-28 10:12 -10.22674 -53.51281 37032 ft 449 kts 137°
2026-04-28 10:12 -10.27257 -53.46967 37024 ft 449 kts 137°
2026-04-28 10:13 -10.31830 -53.42660 37016 ft 448 kts 137°
2026-04-28 10:13 -10.36376 -53.38377 37026 ft 448 kts 137°
2026-04-28 10:14 -10.40948 -53.34062 37032 ft 448 kts 137°
2026-04-28 10:14 -10.45515 -53.29745 37021 ft 449 kts 137°
2026-04-28 10:15 -10.50093 -53.25416 37021 ft 449 kts 137°
2026-04-28 10:15 -10.54662 -53.21093 37033 ft 449 kts 137°
2026-04-28 10:16 -10.59243 -53.16758 37024 ft 449 kts 137°
2026-04-28 10:16 -10.63817 -53.12428 37028 ft 449 kts 136°
2026-04-28 10:17 -10.68366 -53.08118 37021 ft 450 kts 136°
2026-04-28 10:17 -10.72946 -53.03778 37022 ft 450 kts 136°
2026-04-28 10:18 -10.77527 -52.99436 37025 ft 450 kts 136°
2026-04-28 10:18 -10.82106 -52.95093 37024 ft 450 kts 136°
2026-04-28 10:19 -10.86692 -52.90741 37028 ft 450 kts 136°
2026-04-28 10:19 -10.91276 -52.86390 37019 ft 450 kts 136°
2026-04-28 10:20 -10.95827 -52.82068 37023 ft 450 kts 136°
2026-04-28 10:20 -11.00409 -52.77715 37020 ft 451 kts 136°
2026-04-28 10:21 -11.04988 -52.73362 37018 ft 451 kts 136°
2026-04-28 10:21 -11.09574 -52.69000 37020 ft 451 kts 136°
2026-04-28 10:22 -11.13382 -52.65378 37018 ft 451 kts 136°
2026-04-28 10:22 -11.17967 -52.61014 37016 ft 451 kts 136°
2026-04-28 10:23 -11.22551 -52.56649 37018 ft 451 kts 136°
2026-04-28 10:23 -11.27144 -52.52274 37024 ft 452 kts 136°
2026-04-28 10:24 -11.31731 -52.47902 37025 ft 452 kts 136°
2026-04-28 10:24 -11.36326 -52.43521 37020 ft 452 kts 136°
2026-04-28 10:25 -11.40913 -52.39144 37019 ft 452 kts 136°
2026-04-28 10:25 -11.45508 -52.34758 37027 ft 452 kts 136°
2026-04-28 10:26 -11.50072 -52.30400 37017 ft 452 kts 136°
2026-04-28 10:26 -11.54678 -52.26041 37014 ft 452 kts 138°
2026-04-28 10:27 -11.59457 -52.21875 37018 ft 452 kts 140°
2026-04-28 10:27 -11.64279 -52.17756 37020 ft 452 kts 140°
2026-04-28 10:28 -11.69082 -52.13615 37020 ft 452 kts 139°
2026-04-28 10:29 -11.76229 -52.07398 37019 ft 451 kts 139°
2026-04-28 10:29 -11.81002 -52.03237 37021 ft 451 kts 139°
2026-04-28 10:30 -11.85785 -51.99066 37020 ft 451 kts 139°
2026-04-28 10:30 -11.90562 -51.94899 37014 ft 452 kts 139°
2026-04-28 10:31 -11.95346 -51.90725 37019 ft 452 kts 139°
2026-04-28 10:31 -12.00136 -51.86543 37016 ft 453 kts 139°
2026-04-28 10:32 -12.04933 -51.82353 37020 ft 454 kts 139°
2026-04-28 10:32 -12.09704 -51.78184 37018 ft 455 kts 139°
2026-04-28 10:33 -12.14524 -51.73970 37016 ft 456 kts 139°
2026-04-28 10:33 -12.19344 -51.69753 37026 ft 456 kts 139°
2026-04-28 10:34 -12.24176 -51.65524 37017 ft 457 kts 139°
2026-04-28 10:34 -12.29004 -51.61297 37012 ft 457 kts 139°
2026-04-28 10:35 -12.33842 -51.57058 37016 ft 457 kts 139°
2026-04-28 10:35 -12.38675 -51.52822 37012 ft 457 kts 139°
2026-04-28 10:36 -12.43472 -51.48615 37010 ft 457 kts 139°
2026-04-28 10:36 -12.48306 -51.44372 37014 ft 456 kts 139°
2026-04-28 10:37 -12.53117 -51.40146 37010 ft 456 kts 139°
2026-04-28 10:37 -12.57794 -51.35765 37009 ft 455 kts 136°
2026-04-28 10:38 -12.62389 -51.31313 37011 ft 454 kts 136°
2026-04-28 10:38 -12.66985 -51.26881 37004 ft 454 kts 137°
2026-04-28 10:39 -12.71600 -51.22460 37012 ft 453 kts 137°
2026-04-28 10:39 -12.76203 -51.18059 37006 ft 453 kts 137°
2026-04-28 10:40 -12.80775 -51.13687 37008 ft 452 kts 137°
2026-04-28 10:40 -12.85378 -51.09282 37006 ft 452 kts 137°
2026-04-28 10:41 -12.89979 -51.04875 37010 ft 453 kts 137°
2026-04-28 10:41 -12.94585 -51.00461 37013 ft 453 kts 137°
2026-04-28 10:42 -12.99192 -50.96044 37012 ft 454 kts 137°
2026-04-28 10:42 -13.03810 -50.91614 37010 ft 455 kts 137°
2026-04-28 10:43 -13.08426 -50.87184 37015 ft 455 kts 137°
2026-04-28 10:43 -13.13056 -50.82737 37015 ft 456 kts 137°
2026-04-28 10:44 -13.17673 -50.78300 37014 ft 456 kts 137°
2026-04-28 10:44 -13.22308 -50.73845 37013 ft 457 kts 137°
2026-04-28 10:45 -13.26945 -50.69383 37017 ft 457 kts 137°
2026-04-28 10:45 -13.31586 -50.64916 37011 ft 457 kts 137°
2026-04-28 10:46 -13.36229 -50.60448 37013 ft 457 kts 137°
2026-04-28 10:46 -13.40864 -50.55984 37013 ft 457 kts 137°
2026-04-28 10:47 -13.45501 -50.51515 37015 ft 457 kts 137°
2026-04-28 10:47 -13.50140 -50.47041 37013 ft 457 kts 137°
2026-04-28 10:48 -13.54769 -50.42573 37014 ft 457 kts 137°
2026-04-28 10:48 -13.59400 -50.38101 37014 ft 457 kts 137°
2026-04-28 10:49 -13.64034 -50.33624 37012 ft 457 kts 137°
2026-04-28 10:49 -13.68666 -50.29147 37015 ft 457 kts 137°
2026-04-28 10:50 -13.73292 -50.24672 37013 ft 457 kts 137°
2026-04-28 10:50 -13.77893 -50.20219 37016 ft 457 kts 137°
2026-04-28 10:51 -13.82519 -50.15740 37015 ft 457 kts 137°
2026-04-28 10:51 -13.87148 -50.11254 37015 ft 457 kts 137°
2026-04-28 10:52 -13.91776 -50.06768 37012 ft 457 kts 137°
2026-04-28 10:52 -13.96407 -50.02276 37017 ft 457 kts 137°
2026-04-28 10:53 -14.01035 -49.97783 37013 ft 458 kts 137°
2026-04-28 10:53 -14.05676 -49.93277 37015 ft 458 kts 137°
2026-04-28 10:54 -14.10316 -49.88768 37020 ft 458 kts 137°
2026-04-28 10:54 -14.14954 -49.84259 37015 ft 458 kts 137°
2026-04-28 10:55 -14.19554 -49.79784 37019 ft 458 kts 137°
2026-04-28 10:55 -14.24182 -49.75278 37017 ft 458 kts 137°
2026-04-28 10:56 -14.28811 -49.70769 37019 ft 457 kts 137°
2026-04-28 10:56 -14.33435 -49.66263 37020 ft 457 kts 137°
2026-04-28 10:57 -14.38056 -49.61757 37026 ft 457 kts 137°
2026-04-28 10:57 -14.42672 -49.57253 37028 ft 457 kts 137°
2026-04-28 10:58 -14.47285 -49.52749 37028 ft 456 kts 137°
2026-04-28 10:58 -14.51896 -49.48243 37031 ft 456 kts 137°
2026-04-28 10:59 -14.56507 -49.43736 37032 ft 456 kts 137°
2026-04-28 10:59 -14.61117 -49.39227 37038 ft 456 kts 137°
2026-04-28 11:00 -14.65727 -49.34715 37037 ft 457 kts 137°
2026-04-28 11:00 -14.70310 -49.30227 37040 ft 457 kts 136°
2026-04-28 11:01 -14.74923 -49.25707 37038 ft 457 kts 136°
2026-04-28 11:01 -14.79533 -49.21186 37044 ft 457 kts 136°
2026-04-28 11:02 -14.84155 -49.16651 37042 ft 457 kts 137°
2026-04-28 11:02 -14.88768 -49.12122 37047 ft 458 kts 137°
2026-04-28 11:03 -14.93388 -49.07583 37050 ft 458 kts 137°
2026-04-28 11:03 -14.98004 -49.03046 37050 ft 458 kts 137°
2026-04-28 11:04 -15.02626 -48.98499 37053 ft 458 kts 137°
2026-04-28 11:04 -15.07252 -48.93946 37056 ft 459 kts 137°
2026-04-28 11:05 -15.11812 -48.89401 37055 ft 459 kts 136°
2026-04-28 11:05 -15.16382 -48.84793 37059 ft 458 kts 136°
2026-04-28 11:06 -15.20953 -48.80181 37058 ft 458 kts 136°
2026-04-28 11:06 -15.25517 -48.75581 37060 ft 458 kts 136°
2026-04-28 11:07 -15.30087 -48.70975 37065 ft 458 kts 136°
2026-04-28 11:07 -15.34653 -48.66371 37067 ft 458 kts 136°
2026-04-28 11:08 -15.39210 -48.61774 37070 ft 457 kts 136°
2026-04-28 11:08 -15.43768 -48.57172 37074 ft 457 kts 136°
2026-04-28 11:09 -15.47553 -48.53348 37075 ft 457 kts 136°
2026-04-28 11:09 -15.52104 -48.48747 37080 ft 457 kts 136°
2026-04-28 11:10 -15.56659 -48.44140 37079 ft 457 kts 136°
2026-04-28 11:10 -15.61212 -48.39532 37085 ft 457 kts 136°
2026-04-28 11:11 -15.65767 -48.34918 37086 ft 458 kts 136°
2026-04-28 11:11 -15.70320 -48.30304 37094 ft 458 kts 136°
2026-04-28 11:12 -15.74849 -48.25711 37099 ft 458 kts 136°
2026-04-28 11:12 -15.79409 -48.21083 37123 ft 458 kts 136°
2026-04-28 11:13 -15.83967 -48.16455 37136 ft 458 kts 136°
2026-04-28 11:13 -15.88495 -48.11852 37155 ft 458 kts 136°
2026-04-28 11:14 -15.93052 -48.07219 37163 ft 458 kts 136°
2026-04-28 11:14 -15.97608 -48.02583 37167 ft 458 kts 136°
2026-04-28 11:15 -16.02157 -47.97951 37167 ft 458 kts 136°
2026-04-28 11:15 -16.06708 -47.93313 37150 ft 458 kts 136°
2026-04-28 11:16 -16.11256 -47.88676 37137 ft 458 kts 136°
2026-04-28 11:16 -16.15811 -47.84029 37125 ft 458 kts 136°
2026-04-28 11:17 -16.20329 -47.79416 37107 ft 458 kts 136°
2026-04-28 11:17 -16.24884 -47.74761 37104 ft 458 kts 136°
2026-04-28 11:18 -16.29432 -47.70111 37106 ft 458 kts 136°
2026-04-28 11:18 -16.33977 -47.65461 37101 ft 458 kts 136°
2026-04-28 11:19 -16.38523 -47.60805 37100 ft 458 kts 136°
2026-04-28 11:19 -16.43062 -47.56155 37101 ft 458 kts 136°
2026-04-28 11:20 -16.47596 -47.51493 37101 ft 458 kts 136°
2026-04-28 11:20 -16.52117 -47.46827 37102 ft 457 kts 136°
2026-04-28 11:21 -16.56644 -47.42153 37099 ft 457 kts 136°
2026-04-28 11:21 -16.61134 -47.37514 37103 ft 457 kts 136°
2026-04-28 11:22 -16.65661 -47.32835 37100 ft 457 kts 136°
2026-04-28 11:22 -16.70179 -47.28161 37099 ft 457 kts 136°
2026-04-28 11:23 -16.74691 -47.23491 37097 ft 457 kts 136°
2026-04-28 11:23 -16.79207 -47.18812 37094 ft 457 kts 136°
2026-04-28 11:24 -16.83726 -47.14127 37095 ft 457 kts 136°
2026-04-28 11:24 -16.88300 -47.09509 37092 ft 457 kts 138°
2026-04-28 11:25 -16.92993 -47.05022 37094 ft 457 kts 138°
2026-04-28 11:25 -16.97685 -47.00530 37091 ft 457 kts 138°
2026-04-28 11:26 -17.02360 -46.96012 37088 ft 457 kts 138°
2026-04-28 11:26 -17.06999 -46.91513 37089 ft 458 kts 138°
2026-04-28 11:27 -17.11668 -46.86983 37087 ft 458 kts 138°
2026-04-28 11:27 -17.16353 -46.82482 37085 ft 457 kts 141°
2026-04-28 11:28 -17.21665 -46.78855 37093 ft 455 kts 151°
2026-04-28 11:28 -17.27166 -46.75573 37080 ft 456 kts 151°
2026-04-28 11:29 -17.32673 -46.72267 37090 ft 456 kts 151°
2026-04-28 11:29 -17.38121 -46.68946 37085 ft 456 kts 150°
2026-04-28 11:30 -17.43634 -46.65562 37086 ft 456 kts 150°
2026-04-28 11:30 -17.51810 -46.60536 37086 ft 456 kts 150°
2026-04-28 11:31 -17.57288 -46.57167 37086 ft 456 kts 150°
2026-04-28 11:31 -17.62766 -46.53796 37082 ft 456 kts 150°
2026-04-28 11:32 -17.68247 -46.50421 37086 ft 456 kts 150°
2026-04-28 11:32 -17.73723 -46.47047 37086 ft 457 kts 150°
2026-04-28 11:33 -17.79209 -46.43664 37089 ft 457 kts 150°
2026-04-28 11:33 -17.84479 -46.40412 37090 ft 457 kts 150°
2026-04-28 11:34 -17.89962 -46.37026 37092 ft 457 kts 150°
2026-04-28 11:34 -17.95462 -46.33628 37087 ft 457 kts 150°
2026-04-28 11:35 -18.00945 -46.30237 37095 ft 458 kts 150°
2026-04-28 11:35 -18.06433 -46.26840 37095 ft 458 kts 150°
2026-04-28 11:36 -18.11929 -46.23436 37099 ft 458 kts 150°
2026-04-28 11:36 -18.17427 -46.20028 37100 ft 458 kts 150°
2026-04-28 11:37 -18.22923 -46.16619 37104 ft 458 kts 150°
2026-04-28 11:37 -18.28372 -46.13235 37105 ft 458 kts 150°
2026-04-28 11:38 -18.33860 -46.09821 37109 ft 458 kts 150°
2026-04-28 11:38 -18.39353 -46.06402 37103 ft 459 kts 150°
2026-04-28 11:39 -18.44858 -46.02972 37109 ft 459 kts 150°
2026-04-28 11:39 -18.50317 -45.99569 37110 ft 459 kts 150°
2026-04-28 11:40 -18.55815 -45.96139 37106 ft 459 kts 150°
2026-04-28 11:40 -18.61310 -45.92708 37113 ft 459 kts 150°
2026-04-28 11:41 -18.66803 -45.89276 37113 ft 459 kts 150°
2026-04-28 11:41 -18.72297 -45.85840 37107 ft 459 kts 150°
2026-04-28 11:42 -18.77802 -45.82394 37108 ft 459 kts 150°
2026-04-28 11:42 -18.83306 -45.78948 37105 ft 460 kts 151°
2026-04-28 11:43 -18.88848 -45.75557 37108 ft 460 kts 152°
2026-04-28 11:43 -18.94374 -45.72213 37105 ft 461 kts 152°
2026-04-28 11:44 -18.99936 -45.68836 37106 ft 461 kts 152°
2026-04-28 11:44 -19.05497 -45.65448 37106 ft 462 kts 152°
2026-04-28 11:45 -19.11066 -45.62050 37111 ft 462 kts 152°
2026-04-28 11:45 -19.16630 -45.58652 37106 ft 462 kts 152°
2026-04-28 11:46 -19.22203 -45.55246 37105 ft 462 kts 152°
2026-04-28 11:46 -19.27779 -45.51836 37106 ft 463 kts 152°
2026-04-28 11:47 -19.33356 -45.48422 37106 ft 463 kts 152°
2026-04-28 11:47 -19.38902 -45.45013 37107 ft 463 kts 151°
2026-04-28 11:48 -19.44474 -45.41577 37105 ft 463 kts 152°
2026-04-28 11:48 -19.50047 -45.38137 37113 ft 463 kts 152°
2026-04-28 11:49 -19.55621 -45.34696 37106 ft 464 kts 152°
2026-04-28 11:49 -19.61205 -45.31246 37106 ft 464 kts 152°
2026-04-28 11:50 -19.66782 -45.27797 37115 ft 464 kts 152°
2026-04-28 11:50 -19.72360 -45.24346 37115 ft 465 kts 152°
2026-04-28 11:51 -19.77949 -45.20883 37115 ft 465 kts 152°
2026-04-28 11:51 -19.83545 -45.17414 37113 ft 465 kts 152°
2026-04-28 11:52 -19.89117 -45.13973 37114 ft 466 kts 152°
2026-04-28 11:52 -19.94732 -45.10535 37112 ft 466 kts 152°
2026-04-28 11:53 -20.00354 -45.07090 37116 ft 466 kts 152°
2026-04-28 11:53 -20.05981 -45.03635 37119 ft 467 kts 152°
2026-04-28 11:54 -20.11608 -45.00174 37121 ft 467 kts 152°
2026-04-28 11:54 -20.17197 -44.96734 37129 ft 467 kts 152°
2026-04-28 11:55 -20.22822 -44.93268 37124 ft 468 kts 152°
2026-04-28 11:55 -20.28459 -44.89792 37128 ft 468 kts 152°
2026-04-28 11:56 -20.33179 -44.86880 37134 ft 468 kts 152°
2026-04-28 11:56 -20.38812 -44.83402 37125 ft 468 kts 152°
2026-04-28 11:57 -20.44450 -44.79916 37132 ft 469 kts 152°
2026-04-28 11:57 -20.50098 -44.76414 37137 ft 469 kts 151°
2026-04-28 11:58 -20.55636 -44.72797 37134 ft 470 kts 150°
2026-04-28 11:58 -20.61194 -44.69105 36927 ft 474 kts 150°
2026-04-28 11:59 -20.64003 -44.67247 36515 ft 473 kts 150°
2026-04-28 11:59 -20.66791 -44.65408 36113 ft 468 kts 150°
2026-04-28 11:59 -20.69557 -44.63585 35693 ft 465 kts 150°
2026-04-28 11:59 -20.72301 -44.61779 35274 ft 462 kts 150°
2026-04-28 12:00 -20.75033 -44.59980 34865 ft 460 kts 150°
2026-04-28 12:00 -20.77751 -44.58190 34437 ft 458 kts 150°
2026-04-28 12:00 -20.80467 -44.56406 33997 ft 456 kts 150°
2026-04-28 12:00 -20.83179 -44.54676 33543 ft 453 kts 151°
2026-04-28 12:01 -20.85896 -44.52970 33119 ft 451 kts 151°
2026-04-28 12:01 -20.88595 -44.51279 32706 ft 448 kts 151°
2026-04-28 12:01 -20.91273 -44.49595 32300 ft 445 kts 151°
2026-04-28 12:01 -20.93929 -44.47918 31899 ft 443 kts 151°
2026-04-28 12:02 -20.96571 -44.46245 31507 ft 440 kts 151°
2026-04-28 12:02 -20.99200 -44.44582 31118 ft 438 kts 151°
2026-04-28 12:02 -21.01792 -44.42958 30712 ft 437 kts 151°
2026-04-28 12:02 -21.04413 -44.41321 30324 ft 435 kts 151°
2026-04-28 12:03 -21.07023 -44.39689 29877 ft 433 kts 151°
2026-04-28 12:03 -21.09610 -44.38062 29451 ft 430 kts 151°
2026-04-28 12:03 -21.12181 -44.36430 29034 ft 427 kts 150°
2026-04-28 12:03 -21.14728 -44.34809 28626 ft 424 kts 150°
2026-04-28 12:04 -21.17259 -44.33197 28226 ft 421 kts 151°
2026-04-28 12:04 -21.19772 -44.31599 27835 ft 419 kts 151°
2026-04-28 12:04 -21.22271 -44.30010 27434 ft 416 kts 151°
2026-04-28 12:04 -21.24749 -44.28432 27049 ft 413 kts 150°
2026-04-28 12:05 -21.27210 -44.26853 26666 ft 411 kts 150°
2026-04-28 12:05 -21.29660 -44.25276 26277 ft 409 kts 150°
2026-04-28 12:05 -21.32095 -44.23707 25897 ft 407 kts 150°
2026-04-28 12:05 -21.34481 -44.22168 25525 ft 405 kts 150°
2026-04-28 12:06 -21.36892 -44.20615 25143 ft 403 kts 150°
2026-04-28 12:06 -21.39290 -44.19069 24741 ft 402 kts 150°
2026-04-28 12:06 -21.41681 -44.17528 24364 ft 400 kts 150°
2026-04-28 12:06 -21.44065 -44.15992 23970 ft 399 kts 150°
2026-04-28 12:07 -21.46459 -44.14494 23566 ft 397 kts 153°
2026-04-28 12:07 -21.48905 -44.13136 23165 ft 394 kts 155°
2026-04-28 12:07 -21.51366 -44.11850 22762 ft 391 kts 156°
2026-04-28 12:07 -21.53817 -44.10592 22380 ft 389 kts 156°
2026-04-28 12:08 -21.56249 -44.09343 22002 ft 386 kts 156°
2026-04-28 12:08 -21.58661 -44.08096 21623 ft 384 kts 156°
2026-04-28 12:08 -21.61064 -44.06845 21246 ft 382 kts 155°
2026-04-28 12:08 -21.63446 -44.05597 20873 ft 380 kts 155°
2026-04-28 12:09 -21.65813 -44.04354 20500 ft 378 kts 155°
2026-04-28 12:09 -21.68176 -44.03109 20121 ft 377 kts 155°
2026-04-28 12:09 -21.70524 -44.01870 19732 ft 375 kts 155°
2026-04-28 12:09 -21.72866 -44.00634 19365 ft 374 kts 155°
2026-04-28 12:10 -21.75211 -43.99395 18967 ft 374 kts 155°
2026-04-28 12:10 -21.77547 -43.98161 18593 ft 373 kts 155°
2026-04-28 12:10 -21.79869 -43.96934 18200 ft 372 kts 155°
2026-04-28 12:10 -21.82151 -43.95727 17788 ft 370 kts 155°
2026-04-28 12:11 -21.84451 -43.94510 17411 ft 367 kts 155°
2026-04-28 12:11 -21.86733 -43.93302 17051 ft 364 kts 155°
2026-04-28 12:11 -21.88997 -43.92103 16679 ft 362 kts 155°
2026-04-28 12:11 -21.91249 -43.90911 16313 ft 360 kts 155°
2026-04-28 12:12 -21.93489 -43.89724 15957 ft 358 kts 154°
2026-04-28 12:12 -21.95722 -43.88541 15598 ft 356 kts 154°
2026-04-28 12:12 -21.97938 -43.87367 15235 ft 355 kts 154°
2026-04-28 12:12 -22.00148 -43.86194 14877 ft 353 kts 154°
2026-04-28 12:13 -22.02343 -43.85030 14521 ft 351 kts 154°
2026-04-28 12:13 -22.04524 -43.83872 14158 ft 348 kts 154°
2026-04-28 12:13 -22.06687 -43.82724 13774 ft 346 kts 154°
2026-04-28 12:13 -22.08848 -43.81577 13388 ft 344 kts 154°
2026-04-28 12:14 -22.10980 -43.80444 13022 ft 340 kts 154°
2026-04-28 12:14 -22.13100 -43.79317 12656 ft 337 kts 154°
2026-04-28 12:14 -22.15198 -43.78202 12316 ft 334 kts 154°
2026-04-28 12:14 -22.17270 -43.77100 11970 ft 331 kts 154°
2026-04-28 12:15 -22.19325 -43.76007 11628 ft 328 kts 154°
2026-04-28 12:15 -22.21333 -43.74938 11303 ft 325 kts 154°
2026-04-28 12:15 -22.23351 -43.73865 10960 ft 320 kts 154°
2026-04-28 12:15 -22.25318 -43.72817 10618 ft 310 kts 154°
2026-04-28 12:16 -22.27227 -43.71800 10333 ft 299 kts 154°
2026-04-28 12:16 -22.29046 -43.70831 10214 ft 287 kts 154°
2026-04-28 12:16 -22.30826 -43.69882 9971 ft 284 kts 154°
2026-04-28 12:16 -22.32595 -43.68939 9666 ft 283 kts 154°
2026-04-28 12:17 -22.34358 -43.68000 9352 ft 282 kts 153°
2026-04-28 12:17 -22.36116 -43.67062 9039 ft 282 kts 153°
2026-04-28 12:17 -22.37874 -43.66124 8735 ft 281 kts 154°
2026-04-28 12:17 -22.39623 -43.65190 8440 ft 280 kts 153°
2026-04-28 12:18 -22.41374 -43.64255 8147 ft 280 kts 153°
2026-04-28 12:18 -22.43116 -43.63325 7851 ft 279 kts 153°
2026-04-28 12:18 -22.44861 -43.62393 7559 ft 279 kts 153°
2026-04-28 12:18 -22.46600 -43.61464 7259 ft 278 kts 153°
2026-04-28 12:19 -22.48335 -43.60537 6965 ft 278 kts 153°
2026-04-28 12:19 -22.50068 -43.59610 6674 ft 278 kts 153°
2026-04-28 12:19 -22.51803 -43.58682 6360 ft 278 kts 153°
2026-04-28 12:19 -22.53533 -43.57757 6058 ft 277 kts 153°
2026-04-28 12:20 -22.55263 -43.56831 5773 ft 277 kts 153°
2026-04-28 12:20 -22.56989 -43.55906 5460 ft 277 kts 153°
2026-04-28 12:20 -22.58705 -43.54986 5172 ft 275 kts 153°
2026-04-28 12:20 -22.60412 -43.54072 4892 ft 274 kts 153°
2026-04-28 12:21 -22.62100 -43.53170 4566 ft 272 kts 153°
2026-04-28 12:21 -22.63767 -43.52222 4294 ft 270 kts 144°
2026-04-28 12:21 -22.65113 -43.50832 4009 ft 267 kts 128°
2026-04-28 12:21 -22.66231 -43.49243 3841 ft 260 kts 125°
2026-04-28 12:22 -22.67246 -43.47691 3722 ft 246 kts 124°
2026-04-28 12:22 -22.68204 -43.46217 3619 ft 232 kts 124°
2026-04-28 12:22 -22.69107 -43.44836 3518 ft 219 kts 124°
2026-04-28 12:22 -22.69958 -43.43540 3469 ft 204 kts 124°
2026-04-28 12:23 -22.70754 -43.42327 3397 ft 191 kts 124°
2026-04-28 12:23 -22.71512 -43.41174 3190 ft 186 kts 125°
2026-04-28 12:23 -22.72248 -43.40052 2964 ft 180 kts 124°
2026-04-28 12:23 -22.72968 -43.38958 2735 ft 175 kts 125°
2026-04-28 12:24 -22.73652 -43.37917 2509 ft 164 kts 124°
2026-04-28 12:24 -22.74287 -43.36949 2311 ft 155 kts 125°
2026-04-28 12:24 -22.74892 -43.36028 2106 ft 151 kts 125°
2026-04-28 12:24 -22.75500 -43.35104 1916 ft 151 kts 125°
2026-04-28 12:25 -22.76109 -43.34177 1715 ft 151 kts 125°
2026-04-28 12:25 -22.76719 -43.33249 1515 ft 151 kts 125°
2026-04-28 12:25 -22.77328 -43.32323 1310 ft 150 kts 125°
2026-04-28 12:25 -22.77938 -43.31396 1126 ft 151 kts 125°
2026-04-28 12:26 -22.78545 -43.30473 931 ft 150 kts 126°
2026-04-28 12:26 -22.79148 -43.29555 741 ft 150 kts 125°
2026-04-28 12:26 -22.79748 -43.28644 565 ft 147 kts 125°
2026-04-28 12:26 -22.80340 -43.27743 375 ft 147 kts 126°
2026-04-28 12:27 -22.80933 -43.26843 207 ft 146 kts 125°
2026-04-28 12:27 -22.81521 -43.25948 38 ft 142 kts 125°
2026-04-28 12:27 -22.82018 -43.25198 26 ft 86 kts 126°
2026-04-28 12:27 -22.82277 -43.24807 18 ft 49 kts 122°
2026-04-28 12:28 -22.82356 -43.24592 19 ft 24 kts 100°
2026-04-28 12:28 -22.82352 -43.24466 20 ft 14 kts 39°
2026-04-28 12:28 -22.82295 -43.24505 18 ft 11 kts 304°
2026-04-28 12:28 -22.82248 -43.24577 19 ft 14 kts 306°
2026-04-28 12:29 -22.82093 -43.24812 22 ft 22 kts 305°
2026-04-28 12:29 -22.82006 -43.24942 22 ft 21 kts 306°
2026-04-28 12:29 -22.81921 -43.25069 27 ft 20 kts 306°
2026-04-28 12:30 -22.81840 -43.25191 26 ft 20 kts 306°
2026-04-28 12:30 -22.81736 -43.25232 22 ft 18 kts 34°
2026-04-28 12:30 -22.81633 -43.25153 20 ft 18 kts 35°
2026-04-28 12:30 -22.81534 -43.25079 21 ft 17 kts 35°
2026-04-28 12:31 -22.81429 -43.25063 21 ft 17 kts 321°
2026-04-28 12:31 -22.81352 -43.25153 21 ft 16 kts 311°
2026-04-28 12:31 -22.81287 -43.25247 21 ft 15 kts 305°
2026-04-28 12:31 -22.81225 -43.25272 21 ft 9 kts 41°
2026-04-28 12:32 -22.81205 -43.25248 21 ft 0 kts 47°